Radiation Dose at Monitoring Post of Fukushima Daini Nuclear Power Station
Date,Time,MP-1(microSv/h),MP-2(microSv/h),MP-3(microSv/h),MP-4(microSv/h),MP-5(microSv/h),MP-6(microSv/h),MP-7(microSv/h),Wind Direction,Wind Velocity(m/s),Rain
2014/11/22,00:00,0.625,0.398,0.664,0.597,0.589,0.275,0.245,southwest,3.7,No
2014/11/22,00:10,0.627,0.397,0.663,0.599,0.588,0.276,0.244,southwest,3.6,No
2014/11/22,00:20,0.627,0.398,0.663,0.597,0.590,0.275,0.245,west-southwest,3.4,No
2014/11/22,00:30,0.626,0.397,0.664,0.598,0.589,0.276,0.243,southwest,3.5,No
2014/11/22,00:40,0.626,0.397,0.662,0.599,0.588,0.275,0.244,west-southwest,2.2,No
2014/11/22,00:50,0.628,0.398,0.661,0.599,0.589,0.275,0.243,west-southwest,0.6,No
2014/11/22,01:00,0.627,0.397,0.663,0.599,0.589,0.276,0.245,-,CALM,No
2014/11/22,01:10,0.627,0.398,0.663,0.599,0.588,0.276,0.244,-,CALM,No
2014/11/22,01:20,0.626,0.398,0.661,0.597,0.589,0.275,0.244,-,CALM,No
2014/11/22,01:30,0.627,0.398,0.662,0.598,0.588,0.275,0.244,-,CALM,No
2014/11/22,01:40,0.627,0.397,0.662,0.599,0.589,0.276,0.243,-,CALM,No
2014/11/22,01:50,0.628,0.398,0.663,0.598,0.588,0.275,0.244,northwest,0.5,No
2014/11/22,02:00,0.626,0.397,0.662,0.599,0.588,0.276,0.244,west-northwest,1.0,No
2014/11/22,02:10,0.628,0.397,0.662,0.600,0.589,0.276,0.244,northwest,1.8,No
2014/11/22,02:20,0.627,0.396,0.664,0.598,0.589,0.274,0.244,west-northwest,0.9,No
2014/11/22,02:30,0.625,0.398,0.662,0.598,0.589,0.275,0.244,northwest,0.7,No
2014/11/22,02:40,0.628,0.398,0.662,0.599,0.590,0.276,0.243,-,CALM,No
2014/11/22,02:50,0.628,0.397,0.663,0.597,0.589,0.275,0.244,north,0.7,No
2014/11/22,03:00,0.629,0.397,0.661,0.600,0.587,0.275,0.244,west-southwest,0.8,No
2014/11/22,03:10,0.628,0.397,0.662,0.597,0.588,0.275,0.243,-,CALM,No
2014/11/22,03:20,0.626,0.398,0.661,0.597,0.588,0.277,0.243,southwest,0.5,No
2014/11/22,03:30,0.626,0.397,0.662,0.598,0.587,0.276,0.244,west-southwest,1.9,No
2014/11/22,03:40,0.625,0.397,0.662,0.598,0.589,0.275,0.244,west-southwest,2.1,No
2014/11/22,03:50,0.625,0.398,0.663,0.597,0.588,0.275,0.243,southwest,1.9,No
2014/11/22,04:00,0.625,0.397,0.662,0.598,0.586,0.275,0.243,southwest,2.9,No
2014/11/22,04:10,0.626,0.398,0.662,0.597,0.589,0.276,0.244,southwest,2.9,No
2014/11/22,04:20,0.628,0.398,0.662,0.598,0.587,0.275,0.244,west-southwest,5.3,No
2014/11/22,04:30,0.626,0.397,0.662,0.597,0.587,0.274,0.243,west-southwest,6.4,No
2014/11/22,04:40,0.626,0.398,0.665,0.598,0.589,0.276,0.243,west-southwest,6.4,No
2014/11/22,04:50,0.625,0.397,0.663,0.598,0.589,0.277,0.242,southwest,5.8,No
2014/11/22,05:00,0.626,0.396,0.663,0.598,0.587,0.276,0.245,southwest,4.4,No
2014/11/22,05:10,0.627,0.397,0.663,0.598,0.589,0.276,0.243,south-southwest,2.0,No
2014/11/22,05:20,0.626,0.398,0.663,0.598,0.588,0.275,0.243,southwest,1.1,No
2014/11/22,05:30,0.626,0.398,0.663,0.599,0.588,0.276,0.244,southwest,1.1,No
2014/11/22,05:40,0.627,0.398,0.663,0.599,0.589,0.275,0.242,south-southwest,3.3,No
2014/11/22,05:50,0.626,0.398,0.661,0.599,0.588,0.275,0.243,southwest,3.7,No
2014/11/22,06:00,0.627,0.397,0.662,0.597,0.589,0.276,0.244,southwest,3.8,No
2014/11/22,06:10,0.629,0.397,0.660,0.598,0.589,0.276,0.244,southwest,3.9,No
2014/11/22,06:20,0.626,0.397,0.663,0.598,0.588,0.274,0.243,southwest,3.3,No
2014/11/22,06:30,0.626,0.398,0.662,0.598,0.587,0.275,0.244,south-southwest,2.7,No
2014/11/22,06:40,0.625,0.398,0.664,0.598,0.589,0.275,0.243,south-southwest,2.4,No
2014/11/22,06:50,0.628,0.398,0.662,0.598,0.591,0.275,0.243,southwest,2.9,No
2014/11/22,07:00,0.627,0.398,0.663,0.597,0.589,0.275,0.243,southwest,3.1,No
2014/11/22,07:10,0.627,0.397,0.662,0.597,0.588,0.276,0.244,southwest,2.8,No
2014/11/22,07:20,0.626,0.397,0.663,0.598,0.589,0.277,0.243,west-southwest,1.1,No
2014/11/22,07:30,0.628,0.397,0.665,0.598,0.588,0.276,0.243,-,CALM,No
2014/11/22,07:40,0.628,0.399,0.664,0.599,0.589,0.273,0.243,north-northwest,1.1,No
2014/11/22,07:50,0.629,0.398,0.663,0.600,0.588,0.276,0.243,north,1.9,No
2014/11/22,08:00,0.627,0.398,0.665,0.597,0.588,0.275,0.244,north,2.1,No
2014/11/22,08:10,0.628,0.400,0.663,0.599,0.588,0.276,0.244,north-northeast,1.9,No
2014/11/22,08:20,0.628,0.398,0.662,0.599,0.589,0.275,0.243,north-northeast,1.3,No
2014/11/22,08:30,0.628,0.398,0.664,0.599,0.590,0.275,0.243,north-northeast,1.1,No
2014/11/22,08:40,0.627,0.399,0.664,0.599,0.589,0.276,0.244,north,1.1,No
2014/11/22,08:50,0.629,0.398,0.664,0.600,0.590,0.274,0.243,north,1.0,No
2014/11/22,09:00,0.626,0.399,0.666,0.600,0.589,0.274,0.245,north-northeast,1.5,No
2014/11/22,09:10,0.629,0.399,0.663,0.598,0.590,0.275,0.243,north-northeast,1.1,No
2014/11/22,09:20,0.629,0.399,0.664,0.600,0.591,0.275,0.243,-,CALM,No
2014/11/22,09:30,0.628,0.400,0.664,0.600,0.590,0.276,0.244,northeast,1.1,No
2014/11/22,09:40,0.628,0.398,0.665,0.602,0.589,0.276,0.243,northeast,0.6,No
2014/11/22,09:50,0.629,0.399,0.664,0.601,0.589,0.275,0.243,northeast,0.6,No
2014/11/22,10:00,0.628,0.400,0.664,0.602,0.589,0.275,0.245,-,CALM,No
2014/11/22,10:10,0.627,0.397,0.664,0.603,0.589,0.275,0.245,-,CALM,No
2014/11/22,10:20,0.629,0.399,0.665,0.603,0.591,0.277,0.242,east-northeast,1.5,No
2014/11/22,10:30,0.631,0.400,0.666,0.603,0.590,0.277,0.244,-,CALM,No
2014/11/22,10:40,0.632,0.400,0.664,0.604,0.594,0.275,0.244,-,CALM,No
2014/11/22,10:50,0.631,0.402,0.665,0.602,0.593,0.276,0.243,-,CALM,No
2014/11/22,11:00,0.632,0.402,0.665,0.605,0.594,0.276,0.245,northeast,2.0,No
2014/11/22,11:10,0.632,0.403,0.666,0.605,0.597,0.275,0.244,east-northeast,1.4,No
2014/11/22,11:20,0.631,0.404,0.665,0.606,0.595,0.278,0.245,east-northeast,2.2,No
2014/11/22,11:30,0.630,0.404,0.665,0.605,0.594,0.277,0.246,east,1.4,No
2014/11/22,11:40,0.633,0.403,0.666,0.609,0.594,0.277,0.245,east-northeast,1.7,No
2014/11/22,11:50,0.633,0.403,0.664,0.607,0.595,0.274,0.246,east-northeast,2.0,No
2014/11/22,12:00,0.634,0.403,0.665,0.606,0.594,0.277,0.244,east-northeast,2.0,No
2014/11/22,12:10,0.634,0.404,0.665,0.611,0.595,0.276,0.245,east-northeast,1.9,No
2014/11/22,12:20,0.633,0.404,0.666,0.610,0.593,0.277,0.245,east-northeast,2.7,No
2014/11/22,12:30,0.638,0.405,0.666,0.609,0.596,0.276,0.243,east-northeast,2.4,No
2014/11/22,12:40,0.637,0.405,0.667,0.614,0.594,0.276,0.247,east-northeast,2.4,No
2014/11/22,12:50,0.635,0.403,0.670,0.613,0.594,0.277,0.243,east-northeast,1.7,No
2014/11/22,13:00,0.635,0.404,0.667,0.612,0.594,0.276,0.245,northeast,1.7,No
2014/11/22,13:10,0.635,0.405,0.669,0.615,0.593,0.277,0.245,east-northeast,2.0,No
2014/11/22,13:20,0.636,0.404,0.670,0.614,0.591,0.275,0.244,northeast,2.7,No
2014/11/22,13:30,0.634,0.404,0.670,0.613,0.591,0.277,0.244,northeast,2.5,No
2014/11/22,13:40,0.634,0.404,0.670,0.613,0.591,0.276,0.244,north-northeast,1.9,No
2014/11/22,13:50,0.633,0.403,0.670,0.616,0.591,0.275,0.244,north-northeast,2.6,No
2014/11/22,14:00,0.633,0.404,0.669,0.617,0.591,0.275,0.245,north-northeast,2.5,No
2014/11/22,14:10,0.631,0.404,0.668,0.613,0.592,0.274,0.244,north-northeast,1.9,No
2014/11/22,14:20,0.630,0.405,0.668,0.613,0.590,0.275,0.245,northeast,2.2,No
2014/11/22,14:30,0.631,0.404,0.666,0.614,0.589,0.275,0.244,northeast,2.1,No
2014/11/22,14:40,0.628,0.403,0.665,0.613,0.589,0.274,0.244,northeast,1.4,No
2014/11/22,14:50,0.626,0.402,0.665,0.613,0.588,0.277,0.245,east-northeast,1.4,No
2014/11/22,15:00,0.629,0.403,0.666,0.614,0.590,0.274,0.245,northeast,1.4,No
2014/11/22,15:10,0.627,0.402,0.664,0.610,0.590,0.275,0.244,east-northeast,0.6,No
2014/11/22,15:20,0.626,0.404,0.664,0.609,0.588,0.275,0.246,northwest,0.5,No
2014/11/22,15:30,0.625,0.401,0.664,0.610,0.588,0.276,0.246,-,CALM,No
2014/11/22,15:40,0.625,0.402,0.662,0.609,0.586,0.274,0.244,south-southwest,0.5,No
2014/11/22,15:50,0.627,0.400,0.662,0.605,0.588,0.275,0.245,-,CALM,No
2014/11/22,16:00,0.625,0.401,0.663,0.606,0.589,0.275,0.244,-,CALM,No
2014/11/22,16:10,0.626,0.399,0.663,0.603,0.588,0.277,0.243,-,CALM,No
2014/11/22,16:20,0.626,0.398,0.662,0.604,0.586,0.276,0.245,south,0.9,No
2014/11/22,16:30,0.628,0.398,0.662,0.600,0.589,0.274,0.244,south-southwest,0.6,No
2014/11/22,16:40,0.627,0.397,0.659,0.599,0.588,0.276,0.244,south-southwest,0.6,No
2014/11/22,16:50,0.627,0.398,0.661,0.598,0.590,0.275,0.245,south-southwest,0.9,No
2014/11/22,17:00,0.628,0.397,0.661,0.596,0.588,0.278,0.245,south-southwest,0.8,No
2014/11/22,17:10,0.627,0.396,0.662,0.595,0.589,0.277,0.244,southwest,0.6,No
2014/11/22,17:20,0.626,0.396,0.661,0.596,0.588,0.277,0.245,-,CALM,No
2014/11/22,17:30,0.628,0.397,0.661,0.598,0.588,0.276,0.246,south-southwest,0.9,No
2014/11/22,17:40,0.627,0.399,0.662,0.598,0.586,0.276,0.244,south-southwest,1.4,No
2014/11/22,17:50,0.628,0.398,0.661,0.595,0.588,0.276,0.244,south-southwest,1.3,No
2014/11/22,18:00,0.628,0.398,0.663,0.596,0.588,0.277,0.245,south,0.9,No
2014/11/22,18:10,0.625,0.399,0.662,0.597,0.590,0.276,0.244,-,CALM,No
2014/11/22,18:20,0.627,0.398,0.663,0.598,0.586,0.278,0.246,south-southwest,0.5,No
2014/11/22,18:30,0.626,0.399,0.661,0.599,0.589,0.276,0.244,south-southwest,0.8,No
2014/11/22,18:40,0.628,0.397,0.662,0.599,0.588,0.275,0.246,south-southwest,1.2,No
2014/11/22,18:50,0.626,0.398,0.663,0.597,0.588,0.276,0.245,south,1.8,No
2014/11/22,19:00,0.627,0.397,0.662,0.597,0.589,0.278,0.246,south-southwest,2.5,No
2014/11/22,19:10,0.627,0.398,0.663,0.597,0.588,0.276,0.245,south-southwest,2.4,No
2014/11/22,19:20,0.625,0.397,0.663,0.598,0.588,0.277,0.247,south-southwest,2.5,No
2014/11/22,19:30,0.625,0.397,0.662,0.597,0.589,0.276,0.245,south-southwest,2.6,No
2014/11/22,19:40,0.626,0.396,0.664,0.598,0.588,0.276,0.247,south,2.6,No
2014/11/22,19:50,0.627,0.398,0.664,0.597,0.588,0.276,0.245,south,4.3,No
2014/11/22,20:00,0.625,0.397,0.661,0.600,0.588,0.277,0.246,south,4.4,No
2014/11/22,20:10,0.628,0.398,0.662,0.599,0.587,0.277,0.245,south-southwest,5.0,No
2014/11/22,20:20,0.628,0.396,0.662,0.597,0.587,0.276,0.246,south-southwest,5.1,No
2014/11/22,20:30,0.626,0.397,0.662,0.597,0.587,0.276,0.244,south-southwest,3.5,No
2014/11/22,20:40,0.626,0.397,0.663,0.596,0.588,0.276,0.246,south-southwest,2.0,No
2014/11/22,20:50,0.625,0.398,0.662,0.598,0.588,0.276,0.245,southwest,1.6,No
2014/11/22,21:00,0.628,0.397,0.663,0.598,0.589,0.275,0.245,west-northwest,1.1,No
2014/11/22,21:10,0.627,0.398,0.662,0.597,0.588,0.278,0.246,west-northwest,1.9,No
2014/11/22,21:20,0.626,0.398,0.662,0.597,0.588,0.276,0.246,north-northwest,2.2,No
2014/11/22,21:30,0.628,0.398,0.661,0.598,0.589,0.277,0.244,north-northwest,2.6,No
2014/11/22,21:40,0.627,0.397,0.662,0.599,0.588,0.277,0.246,north-northwest,2.9,No
2014/11/22,21:50,0.627,0.397,0.664,0.597,0.589,0.276,0.244,west,1.7,No
2014/11/22,22:00,0.625,0.399,0.661,0.597,0.588,0.276,0.245,west,1.2,No
2014/11/22,22:10,0.628,0.396,0.663,0.596,0.588,0.276,0.245,west-southwest,2.3,No
2014/11/22,22:20,0.628,0.398,0.661,0.596,0.587,0.277,0.245,west,1.8,No
2014/11/22,22:30,0.628,0.397,0.662,0.598,0.588,0.276,0.247,west-northwest,1.7,No
2014/11/22,22:40,0.627,0.398,0.663,0.598,0.590,0.276,0.244,west-southwest,0.7,No
2014/11/22,22:50,0.627,0.397,0.661,0.597,0.588,0.276,0.246,southwest,1.9,No
2014/11/22,23:00,0.627,0.397,0.663,0.598,0.589,0.276,0.245,south-southwest,2.2,No
2014/11/22,23:10,0.628,0.398,0.664,0.599,0.587,0.276,0.246,south-southwest,2.2,No
2014/11/22,23:20,0.626,0.397,0.661,0.599,0.588,0.275,0.245,southwest,1.8,No
2014/11/22,23:30,0.626,0.397,0.663,0.599,0.588,0.277,0.245,west-southwest,2.0,No
2014/11/22,23:40,0.626,0.399,0.663,0.599,0.588,0.277,0.246,west-southwest,3.0,No
2014/11/22,23:50,0.628,0.399,0.662,0.598,0.589,0.276,0.245,west,2.0,No
